This is the latest recevied weather packets stored in our database for station/object DG0LHZ-10. If no packets are shown the sender has not sent any weather packets the latest 10 day(s).
| Time | Temp. | Humidity | Pressure | Rain* | Wind** | Luminosity | Snow |
|---|---|---|---|---|---|---|---|
| 1778061881 | 20° C | 56% | 1007.5 hPa | - | - | - | - |
| 1778060981 | 20° C | 55% | 1007.5 hPa | - | - | - | - |
| 1778060081 | 19.44° C | 55% | 1007.3 hPa | - | - | - | - |
| 1778059181 | 18.89° C | 55% | 1007.2 hPa | - | - | - | - |
| 1778058281 | 18.33° C | 56% | 1007.1 hPa | - | - | - | - |
| 1778057383 | 17.78° C | 56% | 1007 hPa | - | - | - | - |
| 1778056481 | 17.78° C | 56% | 1006.9 hPa | - | - | - | - |
| 1778055581 | 17.78° C | 57% | 1006.8 hPa | - | - | - | - |
| 1778054681 | 17.22° C | 58% | 1006.5 hPa | - | - | - | - |
| 1778053781 | 17.22° C | 58% | 1006.5 hPa | - | - | - | - |
| 1778052880 | 17.22° C | 59% | 1006.4 hPa | - | - | - | - |
| 1778051980 | 17.22° C | 59% | 1006.4 hPa | - | - | - | - |
| 1778051080 | 16.67° C | 59% | 1006.5 hPa | - | - | - | - |
| 1778050180 | 16.67° C | 59% | 1006.4 hPa | - | - | - | - |
| 1778049280 | 16.11° C | 59% | 1006.3 hPa | - | - | - | - |
| 1778048380 | 16.11° C | 59% | 1006.2 hPa | - | - | - | - |
| 1778047480 | 16.11° C | 57% | 1006.1 hPa | - | - | - | - |
| 1778046580 | 15.56° C | 58% | 1006 hPa | - | - | - | - |
| 1778045680 | 15.56° C | 56% | 1005.8 hPa | - | - | - | - |
| 1778044780 | 15.56° C | 55% | 1005.6 hPa | - | - | - | - |
| 1778043880 | 15.56° C | 54% | 1005.5 hPa | - | - | - | - |
| 1778042980 | 15.56° C | 53% | 1005.5 hPa | - | - | - | - |
| 1778042080 | 16.11° C | 52% | 1005.3 hPa | - | - | - | - |
| 1778041180 | 16.11° C | 52% | 1005.3 hPa | - | - | - | - |
| 1778040279 | 16.11° C | 50% | 1005.3 hPa | - | - | - | - |
* Rain since midnight (hover to see other rain measurements)
** Current wind speed in m/s (hover to see current wind gust speed)